[[{"header":{"parameterUnit":"m.s-1","parameterCategory":1,"la1":30.2991,"la2":30.254,"lo1":-89.0895,"lo2":-89.0444,"dy":0.0017,"dx":0.0017,"nx":28,"ny":28,"refTime":"2024-08-19T03:00:00:Z","depth":0,"parameterNumber":2,"parameterNumberName":"U-component_of_WINDS"},"data":[0,0,0,0,0,0,0,0,0,0,0,0,0,0,0,0,0,0,0,0,0,0,0,0,0,0,0,0,0,0,0,0,0,0,0,0,0,0,0,0,0,0,0,0,0,0,0,0,0,0,0,0,0,0,0,0,0,0,4.1163,4.1165,0,4.1383,4.1385,4.1388,4.1385,4.1382,4.1379,4.1376,4.1607,4.1616,4.1625,0,0,0,0,0,0,0,0,0,0,0,0,0,4.0746,4.0753,4.1163,4.1165,4.1168,4.1382,4.1385,4.1388,4.1385,4.1382,4.1378,4.1375,4.1605,4.1615,4.1626,0,0,0,0,0,0,0,0,0,0,0,0,0,4.0942,4.0756,4.1162,4.1192,4.1197,4.1382,4.1385,4.1389,4.1386,4.1382,4.1377,4.1373,4.1601,4.1614,4.1627,4.1798,0,0,4.1668,4.1674,0,0,0,0,0,0,0,0,4.0931,4.0958,4.1185,4.1191,4.1196,4.1352,4.1323,4.1526,4.1387,4.1315,4.1376,4.1371,4.1526,4.1546,4.1597,4.1809,4.1818,4.1669,4.1677,4.1683,4.1687,0,0,0,0,0,0,0,4.0918,4.0948,4.125,4.1189,4.1195,4.1197,4.122,4.1361,4.1443,4.1321,4.1321,4.1347,4.1529,4.1584,4.1602,4.1822,4.1669,4.1681,4.1689,4.1694,4.2184,4.2189,0,0,0,0,0,0,4.0897,4.0937,4.1243,4.1256,4.105,4.1208,4.1234,4.1306,4.1441,4.1457,4.135,4.1346,4.1563,4.1586,4.161,4.1818,4.1683,4.1695,4.1703,4.2179,4.2185,4.2191,0,0,0,0,0,0,4.0888,4.0924,4.1234,4.1097,4.1136,4.122,4.1302,4.1313,4.1368,4.1463,4.1478,4.1391,4.1561,4.1591,4.175,4.1826,4.1701,4.1713,4.2173,4.2181,4.2188,4.2235,0,0,0,0,0,0,4.0876,4.0921,4.0985,4.1098,4.1144,4.1369,4.1306,4.1321,4.139,4.1387,4.1506,4.1522,4.156,4.1731,4.1764,4.1842,4.1724,4.2167,4.2177,4.2186,4.2227,4.2243,4.2257,0,0,0,0,0,4.0861,4.0991,4.0989,4.1026,4.1226,4.1373,4.14,4.1439,4.1396,4.1463,4.1524,4.1518,4.1812,4.1747,4.1784,4.1867,4.2162,4.2174,4.2185,4.222,4.224,4.2256,0,0,0,0,0,0,4.0888,4.1007,4.1005,4.1175,4.1264,4.1373,4.1457,4.1459,4.1563,4.1555,4.1601,4.1628,4.1787,4.1844,4.1769,4.2039,4.1982,4.2002,4.1996,4.2016,4.203,4.2013,4.1735,0,0,0,0,0,4.0913,4.1021,4.112,4.1261,4.1305,4.1374,4.144,4.1462,4.1557,4.1595,4.1667,4.1761,4.1875,4.1949,4.2059,4.2235,4.2261,4.2311,4.2326,4.2338,4.2354,4.2451,4.2474,4.2228,4.2228,4.2228,0,0,4.0967,4.1045,4.1111,4.1268,4.1339,4.1452,4.1405,4.1527,4.1611,4.1614,4.1767,4.1824,4.1932,4.21,4.2178,4.2152,4.2427,4.2352,4.2361,4.2371,4.2465,4.2488,4.2509,4.2236,4.2234,4.2233,0,0,4.1122,4.1192,4.1317,4.1389,4.1496,4.1541,4.1571,4.168,4.1716,4.1871,4.1875,4.1977,4.2172,4.2248,4.2312,4.2496,4.2494,4.2531,4.2609,4.2703,4.2722,4.2739,4.2804,4.2827,4.2547,4.2547,4.2547,0,4.1176,4.1343,4.1381,4.1502,4.1571,4.1577,4.1704,4.1773,4.1912,4.196,4.1928,4.2172,4.2245,4.2431,4.2475,4.2528,4.2564,4.2517,4.2716,4.2734,4.2751,4.2813,4.2837,4.2551,4.255,4.255,4.2549,0,4.1404,4.152,4.1608,4.1739,4.1819,4.1942,4.2,4.2076,4.2092,4.214,4.2297,4.2385,4.2512,4.2558,4.2576,4.2747,4.2727,4.2706,4.2649,4.2777,4.2836,4.286,4.2556,4.2554,4.2553,4.2552,0,0,4.1582,4.1731,4.1763,4.1822,4.1941,4.2033,4.2157,4.2279,4.2343,4.244,4.2545,4.2709,4.2689,4.2762,4.2789,4.2872,4.301,4.284,4.2843,4.2868,4.3203,4.3217,4.3244,4.301,4.3015,4.3019,4.3194,0,4.1749,4.1967,4.2004,4.2195,4.2303,4.231,4.2419,4.2504,4.2553,4.2653,4.2707,4.2822,4.2788,4.2832,4.2914,4.2976,4.3078,4.2964,4.3109,4.3114,4.308,4.3275,4.3291,4.3452,4.3217,4.3221,4.3224,0,4.1973,4.2071,4.2273,4.2376,4.2423,4.2519,4.2634,4.2729,4.2827,4.2856,4.2937,4.2954,4.3084,4.3022,4.3203,4.3124,4.3186,4.3226,4.3233,4.3247,4.3176,4.3294,4.3505,4.3528,4.3261,4.3258,4.3255,0,4.208,4.2265,4.2408,4.2459,4.2584,4.2651,4.2707,4.28,4.2871,4.2972,4.3018,4.3134,4.3198,4.3288,4.3335,4.3286,4.3513,4.3455,4.3541,4.354,4.3588,4.3584,4.381,4.363,4.3629,4.3629,4.3628,0,4.2262,4.2385,4.2458,4.2546,4.2684,4.2727,4.2863,4.2917,4.3,4.31,4.3115,4.3209,4.3267,4.337,4.3409,4.3552,4.3581,4.3609,4.3618,4.3607,4.3603,4.3647,4.3637,4.3635,4.3634,4.3633,4.3632,0,4.2406,4.246,4.2616,4.2721,4.275,4.2847,4.2938,4.3024,4.3072,4.3199,4.3231,4.3308,4.3429,4.3486,4.3638,4.3664,4.3826,4.3828,4.3792,4.3795,4.3878,4.3868,4.4139,4.4177,4.3973,4.3974,4.3976,0,4.2517,4.2611,4.2725,4.2792,4.2849,4.2957,4.3028,4.3074,4.3149,4.3266,4.3339,4.3461,4.3561,4.3755,4.3825,4.3941,4.3945,4.4032,4.3963,4.3949,4.3945,4.3938,4.3948,4.4044,4.4046,4.4048,4.4049,0,4.2709,4.2731,4.2832,4.2944,4.3028,4.3118,4.3207,4.3262,4.3322,4.3405,4.3528,4.3605,4.3759,4.388,4.4,4.4059,4.4065,4.4071,4.4097,4.4086,4.406,4.4074,4.3825,4.4064,4.4063,4.4061,4.4061,4.406,4.284,4.2923,4.3016,4.3128,4.3199,4.3281,4.3367,4.3425,4.3528,4.3655,4.3677,4.3808,4.3904,4.4065,4.4129,4.4233,4.4213,4.4251,4.426,4.4268,4.4272,4.4045,4.4256,4.4255,4.4255,4.4255,4.4255,0,4.3031,4.3091,4.3194,4.3316,4.3405,4.34,4.3498,4.3573,4.3687,4.3775,4.3872,4.4014,4.4131,4.421,4.4329,4.4397,4.4403,4.4427,4.4421,4.4435,4.4284,4.4249,4.442,4.442,4.442,4.442,4.442,4.442,4.3141,4.3281,4.3314,4.349,4.355,4.3676,4.3732,4.3808,4.3878,4.4035,4.4131,4.4181,4.4266,4.4391,4.4498,4.4519,4.4561,4.4586,4.4606,4.4463,4.4446,4.4429,4.4396,4.4595,4.4595,4.4747,4.4749,4.475]},{"header":{"parameterUnit":"m.s-1","parameterCategory":1,"la1":30.2991,"la2":30.254,"lo1":-89.0895,"lo2":-89.0444,"dy":0.0017,"dx":0.0017,"nx":28,"ny":28,"refTime":"2024-08-19T03:00:00:Z","depth":0,"parameterNumber":3,"parameterNumberName":"V-component_of_WINDS"},"data":[0,0,0,0,0,0,0,0,0,0,0,0,0,0,0,0,0,0,0,0,0,0,0,0,0,0,0,0,0,0,0,0,0,0,0,0,0,0,0,0,0,0,0,0,0,0,0,0,0,0,0,0,0,0,0,0,0,0,1.4118,1.4118,0,1.4172,1.4173,1.4173,1.4144,1.4143,1.4141,1.414,1.4198,1.4201,1.4204,0,0,0,0,0,0,0,0,0,0,0,0,0,1.3991,1.3993,1.4118,1.4118,1.4119,1.4172,1.4173,1.4174,1.4145,1.4143,1.4141,1.4139,1.4197,1.4201,1.4204,0,0,0,0,0,0,0,0,0,0,0,0,0,1.4046,1.3994,1.4118,1.4111,1.4111,1.4172,1.4173,1.4174,1.4145,1.4143,1.414,1.4138,1.4196,1.4201,1.4205,1.4277,0,0,1.4218,1.422,0,0,0,0,0,0,0,0,1.4043,1.405,1.4111,1.4111,1.4111,1.4149,1.4149,1.4208,1.4145,1.4132,1.414,1.4137,1.4184,1.4189,1.4204,1.4279,1.4282,1.4219,1.4221,1.4223,1.4225,0,0,0,0,0,0,0,1.4039,1.4048,1.4139,1.4112,1.4112,1.4106,1.4111,1.416,1.417,1.4133,1.4131,1.4138,1.4184,1.42,1.4206,1.4283,1.4219,1.4223,1.4225,1.4227,1.442,1.4422,0,0,0,0,0,0,1.4035,1.4045,1.4138,1.4141,1.4071,1.411,1.4116,1.4139,1.4169,1.4172,1.414,1.4136,1.4194,1.42,1.4208,1.4294,1.4223,1.4227,1.423,1.4417,1.442,1.4423,0,0,0,0,0,0,1.4032,1.4044,1.4135,1.4092,1.4104,1.4114,1.4141,1.4142,1.4158,1.4174,1.4176,1.4155,1.4192,1.4201,1.426,1.4296,1.4229,1.4233,1.4414,1.4418,1.4421,1.4468,0,0,0,0,0,0,1.4029,1.4043,1.407,1.4093,1.4106,1.4186,1.4143,1.4144,1.4165,1.4162,1.4189,1.4191,1.4191,1.4253,1.4264,1.4301,1.4237,1.4411,1.4416,1.442,1.4463,1.4472,1.448,0,0,0,0,0,1.4025,1.4081,1.4071,1.4083,1.414,1.4188,1.4196,1.4194,1.4168,1.4196,1.4206,1.419,1.429,1.4259,1.4271,1.431,1.4409,1.4414,1.442,1.4459,1.447,1.448,0,0,0,0,0,0,1.4063,1.4084,1.4073,1.4139,1.4162,1.4183,1.4218,1.4206,1.4237,1.4232,1.4229,1.4236,1.4296,1.4309,1.4274,1.4381,1.4345,1.4354,1.4371,1.4382,1.4391,1.4387,1.424,0,0,0,0,0,1.4078,1.4115,1.4132,1.4188,1.42,1.4207,1.4228,1.4225,1.4249,1.4258,1.4273,1.4297,1.4334,1.4358,1.4393,1.4464,1.447,1.4496,1.4505,1.4512,1.452,1.4559,1.4571,1.4441,1.4441,1.4441,0,0,1.4112,1.4128,1.4152,1.4197,1.4214,1.4253,1.4216,1.4258,1.4288,1.4265,1.4321,1.4332,1.436,1.4425,1.4454,1.4437,1.4557,1.4519,1.4525,1.4529,1.4566,1.4578,1.4589,1.4445,1.4444,1.4444,0,0,1.4194,1.4209,1.4258,1.4276,1.4302,1.4306,1.4318,1.434,1.4347,1.4403,1.4387,1.4422,1.4485,1.4505,1.4523,1.4612,1.4599,1.4623,1.467,1.4708,1.4718,1.4727,1.476,1.4772,1.463,1.463,1.463,0,1.4232,1.429,1.4285,1.4329,1.4349,1.4329,1.4379,1.4397,1.4434,1.4449,1.4428,1.4507,1.4524,1.4594,1.4615,1.463,1.4645,1.4621,1.4717,1.4726,1.4734,1.4766,1.4778,1.4633,1.4633,1.4633,1.4632,0,1.4337,1.4377,1.4413,1.4448,1.4473,1.452,1.4522,1.4548,1.4542,1.4548,1.4605,1.4625,1.4663,1.4679,1.4674,1.4748,1.4737,1.4717,1.4681,1.475,1.4779,1.4791,1.4637,1.4636,1.4635,1.4635,0,0,1.4445,1.4476,1.449,1.4506,1.4533,1.4564,1.461,1.4647,1.4669,1.4695,1.4734,1.4787,1.4769,1.479,1.4787,1.482,1.489,1.4796,1.4797,1.4814,1.4975,1.4991,1.5005,1.4881,1.4883,1.4885,1.4973,0,1.453,1.461,1.4606,1.4681,1.4719,1.47,1.474,1.4761,1.4768,1.4802,1.4809,1.4848,1.482,1.4833,1.4864,1.4875,1.4923,1.4868,1.4919,1.4921,1.4914,1.502,1.5037,1.5119,1.4984,1.4986,1.4987,0,1.4639,1.4668,1.4746,1.4768,1.4783,1.482,1.4853,1.4885,1.4909,1.4911,1.4935,1.4926,1.4973,1.4935,1.5001,1.4964,1.4984,1.4993,1.4996,1.5002,1.496,1.503,1.5146,1.5159,1.5005,1.5004,1.5003,0,1.4712,1.477,1.4825,1.4839,1.4865,1.4891,1.4903,1.4925,1.4947,1.4976,1.4991,1.5025,1.5045,1.5072,1.5073,1.5045,1.5141,1.5102,1.5145,1.5146,1.5168,1.5167,1.529,1.5178,1.5178,1.5178,1.5177,0,1.4807,1.4857,1.4858,1.4892,1.4947,1.4942,1.4997,1.5006,1.5026,1.5062,1.5047,1.5082,1.508,1.5115,1.5116,1.5171,1.518,1.5184,1.5184,1.5187,1.5187,1.5201,1.5196,1.5181,1.518,1.518,1.5179,0,1.4899,1.4902,1.496,1.498,1.4986,1.5026,1.5043,1.5075,1.508,1.5126,1.5137,1.5145,1.5186,1.5189,1.5236,1.5237,1.5304,1.5297,1.5296,1.5295,1.5339,1.5335,1.5477,1.5496,1.5371,1.5372,1.5373,0,1.4961,1.4998,1.5021,1.5044,1.5058,1.5094,1.5117,1.5114,1.5138,1.5168,1.5197,1.5236,1.5267,1.5332,1.5343,1.5379,1.5374,1.5421,1.538,1.5381,1.5377,1.5375,1.538,1.543,1.5431,1.5433,1.5433,0,1.507,1.5069,1.5102,1.5135,1.5162,1.5188,1.5213,1.5232,1.5232,1.526,1.5301,1.5325,1.5372,1.5411,1.5446,1.546,1.5448,1.5446,1.5458,1.5462,1.5461,1.5464,1.532,1.5443,1.5442,1.5442,1.5441,1.5441,1.515,1.5182,1.5204,1.5241,1.5258,1.5281,1.5313,1.5322,1.5355,1.5394,1.5389,1.5435,1.5458,1.5504,1.552,1.5556,1.554,1.5558,1.5562,1.5567,1.5572,1.5453,1.5562,1.5562,1.5562,1.5561,1.5561,0,1.526,1.5272,1.5306,1.534,1.537,1.5353,1.5379,1.5405,1.5445,1.5467,1.5498,1.5545,1.5583,1.5596,1.5633,1.566,1.5655,1.567,1.5669,1.5672,1.5584,1.557,1.5673,1.5673,1.5673,1.5673,1.5673,1.5673,1.5321,1.5375,1.5377,1.544,1.5453,1.5497,1.5513,1.5535,1.5552,1.5606,1.5637,1.5644,1.5664,1.5702,1.5736,1.5739,1.5754,1.5772,1.5773,1.569,1.5679,1.5668,1.5655,1.5775,1.5775,1.5859,1.5859,1.586]}]]